Overview Statistics Trail Chart Weather Telemetry Raw packets
 

This is the latest recevied weather packets stored in our database for station/object S57PNX-8. If no packets are shown the sender has not sent any weather packets the latest 10 day(s).

<< 1 2 3 4 5 6 7 >>
Time Temp. Humidity Pressure Rain* Wind** Luminosity Snow
1788644105 20° C 63% 1027.1 hPa - - - -
1788643757 20° C 63% 1027 hPa - - - -
1788642863 20.56° C 62% 1026.8 hPa - - - -
1788641959 20.56° C 62% 1026.9 hPa - - - -
1788641137 21.11° C 61% 1026.6 hPa - - - -
1788641069 21.11° C 61% 1026.6 hPa - - - -
1788640161 21.11° C 60% 1026.4 hPa - - - -
1788639262 21.11° C 60% 1026.6 hPa - - - -
1788638355 21.67° C 60% 1026.5 hPa - - - -
1788637456 21.67° C 60% 1026.4 hPa - - - -
1788636557 21.67° C 60% 1026.3 hPa - - - -
1788635658 22.22° C 59% 1026.1 hPa - - - -
1788634759 22.22° C 59% 1026.1 hPa - - - -
1788633860 22.78° C 58% 1026 hPa - - - -
1788632961 22.78° C 57% 1025.9 hPa - - - -
1788632062 23.33° C 56% 1025.7 hPa - - - -
1788631161 23.89° C 54% 1025.5 hPa - - - -
1788630262 24.44° C 52% 1025.4 hPa - - - -
1788629359 26.11° C 48% 1025.3 hPa - - - -
1788628460 27.78° C 44% 1025.3 hPa - - - -
1788627560 30° C 40% 1025.2 hPa - - - -
1788626661 31.67° C 37% 1025.2 hPa - - - -
1788625761 33.89° C 36% 1025.1 hPa - - - -
1788624862 36.11° C 33% 1025 hPa - - - -
1788623963 35.56° C 34% 1024.6 hPa - - - -

* Rain since midnight (hover to see other rain measurements)
** Current wind speed in m/s (hover to see current wind gust speed)